GW3447 Weather Reports


time (UTC)temp
C
wind
direction
speed
KPH
gust
KPH
rain 1hr
cm
rain 24hr
cm
rain mn
cm
humidity
%
barometer
mb
20260507065015 11 198 6.4 9.7 0.00 0.00 0.00 94 1020.7
20260507064514 11 200 6.4 11.3 0.00 0.00 0.00 93 1020.7
20260507064012 11 208 6.4 12.9 0.00 0.00 0.00 93 1020.7
20260507063513 11 222 8.0 12.9 0.00 0.00 0.00 93 1020.7
20260507063011 11 196 4.8 9.7 0.00 0.00 0.00 93 1020.6
20260507062511 11 206 4.8 8.0 0.00 0.00 0.00 93 1020.7
20260507062011 11 162 3.2 6.4 0.00 0.00 0.00 93 1020.6
20260507061512 11 191 3.2 8.0 0.00 0.00 0.00 93 1020.7
20260507061015 11 173 3.2 8.0 0.00 0.00 0.00 93 1020.6
20260507060511 11 198 1.6 8.0 0.00 0.00 0.00 93 1020.6
20260507060016 11 198 3.2 8.0 0.00 0.00 0.00 93 1020.7
20260507055511 11 191 1.6 4.8 0.00 0.00 0.00 93 1020.7
20260507055011 11 180 1.6 3.2 0.00 0.00 0.00 93 1020.8
20260507054511 11 173 0.0 3.2 0.00 0.00 0.00 94 1020.8
20260507054010 11 167 0.0 4.8 0.00 0.00 0.00 94 1020.8
20260507053509 11 166 1.6 4.8 0.00 0.00 0.00 94 1020.8
20260507053009 11 179 1.6 4.8 0.00 0.00 0.00 94 1020.8
20260507052510 11 178 0.0 3.2 0.00 0.00 0.00 94 1020.8
20260507052009 11 178 0.0 0.0 0.00 0.00 0.00 94 1020.9
20260507051513 11 178 0.0 0.0 0.00 0.00 0.00 94 1020.8
20260507051010 11 178 0.0 0.0 0.00 0.00 0.00 94 1020.9
20260507050509 11 178 0.0 1.6 0.00 0.00 0.00 94 1020.9
20260507050020 11 178 0.0 1.6 0.00 0.00 0.00 94 1020.9
20260507045508 11 178 0.0 0.0 0.00 0.00 0.00 94 1020.9
20260507045008 11 178 0.0 0.0 0.00 0.00 0.00 94 1020.9
20260507044509 11 178 0.0 0.0 0.00 0.00 0.00 94 1020.9
20260507044012 11 178 0.0 0.0 0.00 0.00 0.00 93 1020.9
20260507043508 11 178 0.0 0.0 0.00 0.00 0.00 93 1021.0
20260507043008 11 178 0.0 0.0 0.00 0.00 0.00 93 1020.8
20260507042507 11 178 0.0 0.0 0.00 0.00 0.00 93 1020.9
20260507042014 11 178 0.0 1.6 0.00 0.00 0.00 93 1020.8
20260507041507 11 178 0.0 1.6 0.00 0.00 0.00 93 1020.8
20260507041007 11 178 0.0 1.6 0.00 0.00 0.00 93 1020.8
20260507040507 11 178 0.0 1.6 0.00 0.00 0.00 93 1020.7
20260507040006 11 178 0.0 1.6 0.00 0.00 0.00 92 1020.8
20260507035508 11 178 0.0 0.0 0.00 0.00 0.00 92 1020.8
20260507035008 11 178 0.0 1.6 0.00 0.00 0.00 92 1020.7
20260507034505 11 178 0.0 1.6 0.00 0.00 0.00 92 1020.6
20260507034005 11 178 0.0 0.0 0.00 0.00 0.00 91 1020.6
20260507033505 11 178 0.0 1.6 0.00 0.00 0.00 91 1020.6
20260507033005 11 192 0.0 1.6 0.00 0.00 0.00 90 1020.4
20260507032508 11 180 0.0 1.6 0.00 0.00 0.00 90 1020.4
20260507032004 11 180 0.0 3.2 0.00 0.00 0.00 90 1020.4
20260507031504 12 180 0.0 3.2 0.00 0.00 0.00 90 1020.4
20260507031006 11 190 0.0 3.2 0.00 0.00 0.00 90 1020.4
20260507030505 12 189 0.0 3.2 0.00 0.00 0.00 89 1020.5
20260507030005 12 189 0.0 3.2 0.00 0.00 0.00 89 1020.3
20260507025504 12 199 0.0 0.0 0.00 0.00 0.00 89 1020.5
20260507025003 12 199 0.0 3.2 0.00 0.00 0.00 89 1020.5
20260507024506 12 199 0.0 3.2 0.00 0.00 0.00 89 1020.5
20260507024002 12 196 1.6 4.8 0.00 0.00 0.00 89 1020.4
20260507023503 12 197 0.0 4.8 0.00 0.00 0.00 89 1020.5
20260507023004 12 194 1.6 4.8 0.00 0.00 0.00 89 1020.4
20260507022503 12 190 1.6 4.8 0.00 0.00 0.00 89 1020.4
20260507022002 12 200 0.0 3.2 0.00 0.00 0.00 88 1020.5
20260507021503 12 201 0.0 3.2 0.00 0.00 0.00 88 1020.4
20260507021004 12 201 0.0 3.2 0.00 0.00 0.00 88 1020.5
20260507020502 12 201 0.0 4.8 0.00 0.00 0.00 88 1020.5
20260507020001 12 200 1.6 4.8 0.00 0.00 0.00 88 1020.4
20260507015503 12 202 0.0 4.8 0.00 0.00 0.00 87 1020.4
20260507015001 12 198 0.0 4.8 0.00 0.00 0.00 87 1020.3
20260507014503 12 198 1.6 4.8 0.00 0.00 0.00 87 1020.3
20260507014000 12 196 3.2 4.8 0.00 0.00 0.00 88 1020.3
20260507013500 12 197 3.2 6.4 0.00 0.00 0.00 87 1020.3
20260507013000 12 198 3.2 6.4 0.00 0.00 0.00 87 1020.3
20260507012500 12 202 3.2 6.4 0.00 0.00 0.00 87 1020.3
20260507012001 12 201 1.6 4.8 0.00 0.00 0.00 87 1020.3
20260507011601 12 200 1.6 4.8 0.00 0.00 0.00 87 1020.3
20260507011100 12 200 1.6 4.8 0.00 0.00 0.00 87 1020.4
20260507010600 12 201 1.6 6.4 0.00 0.00 0.00 87 1020.4
20260507010100 12 200 4.8 6.4 0.00 0.00 0.00 87 1020.5
20260507005601 12 198 3.2 6.4 0.00 0.00 0.00 88 1020.4
20260507005100 12 205 3.2 6.4 0.00 0.00 0.00 88 1020.5
20260507004559 12 205 3.2 4.8 0.00 0.00 0.00 88 1020.5
20260507004059 12 205 0.0 6.4 0.00 0.00 0.00 87 1020.5
20260507003559 12 200 3.2 6.4 0.00 0.00 0.00 87 1020.5
20260507003108 12 198 3.2 6.4 0.00 0.00 0.00 87 1020.5
20260507002559 12 196 3.2 4.8 0.00 0.00 0.00 87 1020.4
20260507002101 12 196 3.2 4.8 0.00 0.00 0.00 87 1020.5
20260507001602 12 196 1.6 6.4 0.00 0.00 0.00 87 1020.4
20260507001101 12 197 3.2 6.4 0.00 0.00 0.00 86 1020.4
20260507000601 12 150 1.6 4.8 0.00 0.00 0.00 86 1020.4
20260507000058 12 190 3.2 6.4 0.00 0.00 0.00 86 1020.4
20260506235558 12 197 3.2 6.4 0.00 0.00 0.00 86 1020.5
20260506235057 12 194 1.6 4.8 0.00 0.00 0.00 87 1020.5
20260506234606 12 203 1.6 4.8 0.00 0.00 0.00 88 1020.4
20260506234057 12 203 1.6 6.4 0.00 0.00 0.00 87 1020.5
20260506233557 12 202 3.2 6.4 0.00 0.00 0.00 87 1020.4
20260506233058 12 201 1.6 4.8 0.00 0.00 0.00 87 1020.5
20260506232556 12 201 3.2 4.8 0.00 0.00 0.00 88 1020.5
20260506232100 12 198 1.6 4.8 0.00 0.00 0.00 86 1020.5
20260506231556 12 198 1.6 6.4 0.00 0.00 0.00 87 1020.5
20260506231056 12 197 3.2 6.4 0.00 0.00 0.00 86 1020.5
20260506230555 12 199 3.2 6.4 0.00 0.00 0.00 86 1020.5
20260506225555 12 200 3.2 6.4 0.00 0.00 0.00 85 1020.4
20260506225055 12 203 1.6 8.0 0.00 0.00 0.00 86 1020.5
20260506224559 12 213 3.2 9.7 0.00 0.00 0.00 85 1020.5
20260506224055 12 211 4.8 9.7 0.00 0.00 0.00 85 1020.5
20260506223555 12 215 3.2 6.4 0.00 0.00 0.00 86 1020.5
20260506223054 12 213 1.6 6.4 0.00 0.00 0.00 86 1020.6
20260506222554 12 214 1.6 8.0 0.00 0.00 0.00 87 1020.6
20260506222055 12 227 4.8 9.7 0.00 0.00 0.00 87 1020.6
20260506221555 12 199 4.8 9.7 0.00 0.00 0.00 87 1020.5
20260506221053 12 202 4.8 9.7 0.00 0.00 0.00 86 1020.5
20260506220553 12 200 6.4 9.7 0.00 0.00 0.00 87 1020.6
20260506220054 12 202 6.4 9.7 0.00 0.00 0.00 87 1020.6
20260506215554 12 206 6.4 9.7 0.00 0.00 0.00 87 1020.6
20260506215052 12 193 6.4 9.7 0.00 0.00 0.00 87 1020.6
20260506214552 12 203 4.8 8.0 0.00 0.00 0.00 87 1020.7
20260506214052 12 202 6.4 9.7 0.00 0.00 0.00 86 1020.7
20260506213551 12 203 4.8 9.7 0.00 0.00 0.00 87 1020.6
20260506213053 12 180 4.8 11.3 0.00 0.00 0.00 87 1020.5
20260506212551 12 194 4.8 11.3 0.00 0.00 0.00 87 1020.5
20260506212051 12 191 6.4 11.3 0.00 0.00 0.00 87 1020.6
20260506211552 12 197 6.4 11.3 0.00 0.00 0.00 88 1020.6
20260506211051 12 200 6.4 11.3 0.00 0.00 0.00 87 1020.6
20260506210551 12 202 8.0 11.3 0.00 0.00 0.00 88 1020.6
20260506210050 12 200 6.4 9.7 0.00 0.00 0.00 87 1020.7
20260506205550 12 196 6.4 11.3 0.00 0.00 0.00 86 1020.7
20260506205050 12 201 8.0 11.3 0.00 0.00 0.00 87 1020.7
20260506204550 12 197 6.4 11.3 0.00 0.00 0.00 87 1020.6
20260506204048 12 197 8.0 11.3 0.00 0.00 0.00 88 1020.6
20260506203548 12 202 6.4 11.3 0.00 0.00 0.00 88 1020.5
20260506203048 12 198 6.4 12.9 0.00 0.00 0.00 88 1020.5
20260506202548 12 204 8.0 12.9 0.00 0.00 0.00 87 1020.5
20260506202049 12 206 6.4 12.9 0.00 0.00 0.00 88 1020.5
20260506201547 12 213 8.0 12.9 0.00 0.00 0.00 89 1020.4
20260506201046 12 201 8.0 12.9 0.00 0.00 0.00 90 1020.4
20260506200545 11 187 6.4 12.9 0.00 0.00 0.00 90 1020.5
20260506200046 11 195 8.0 12.9 0.00 0.00 0.00 90 1020.5
20260506195546 11 196 8.0 12.9 0.00 0.00 0.00 90 1020.5
20260506195044 11 207 8.0 14.5 0.00 0.00 0.00 90 1020.5
20260506194544 11 190 9.7 12.9 0.00 0.00 0.00 90 1020.5
20260506194044 11 202 8.0 12.9 0.00 0.00 0.00 90 1020.4
20260506193546 11 195 8.0 12.9 0.00 0.00 0.00 90 1020.3
20260506193044 12 202 8.0 12.9 0.00 0.00 0.00 90 1020.3
20260506192543 12 201 8.0 12.9 0.00 0.00 0.00 90 1020.3
20260506192043 12 200 8.0 14.5 0.00 0.00 0.00 91 1020.3
20260506191542 12 196 9.7 14.5 0.00 0.00 0.00 91 1020.3
20260506191042 11 198 9.7 14.5 0.00 0.00 0.00 91 1020.3
20260506190541 12 207 8.0 14.5 0.00 0.00 0.00 91 1020.2
20260506190043 12 200 9.7 14.5 0.00 0.00 0.00 91 1020.2
20260506185039 12 195 9.7 14.5 0.00 0.00 0.00 92 1020.1
20260506184546 11 190 9.7 14.5 0.00 0.00 0.00 92 1020.1
20260506184039 11 200 9.7 16.1 0.00 0.00 0.00 92 1020.1
20260506183540 12 198 11.3 16.1 0.00 0.00 0.00 91 1020.1
20260506183038 12 194 9.7 16.1 0.00 0.00 0.00 91 1020.1
20260506182538 12 207 9.7 14.5 0.00 0.00 0.00 93 1020.1
20260506182037 12 211 9.7 12.9 0.00 0.00 0.00 93 1020.1
20260506181535 11 194 6.4 16.1 0.00 0.00 0.00 93 1020.0
20260506181034 11 203 9.7 17.7 0.00 0.00 0.00 93 1019.9
20260506180534 11 191 9.7 17.7 0.00 0.00 0.00 93 1020.0
20260506180033 11 190 8.0 14.5 0.00 0.00 0.00 93 1020.0
20260506175533 11 202 8.0 12.9 0.00 0.00 0.00 93 1020.0
20260506175035 11 203 8.0 11.3 0.00 0.00 0.00 93 1020.0
20260506174532 11 202 6.4 9.7 0.00 0.00 0.00 94 1020.0
20260506174034 11 197 6.4 12.9 0.00 0.00 0.00 94 1020.0
20260506173532 11 187 6.4 12.9 0.00 0.00 0.00 94 1019.8
20260506173038 11 210 6.4 14.5 0.00 0.00 0.00 94 1019.6
20260506172530 11 197 8.0 14.5 0.00 0.00 0.00 94 1019.5
20260506172030 11 196 6.4 14.5 0.00 0.00 0.00 95 1019.6
20260506171529 11 207 8.0 14.5 0.00 0.00 0.00 95 1019.7
20260506171031 11 194 8.0 14.5 0.00 0.00 0.00 95 1019.8
20260506170529 11 173 8.0 14.5 0.00 0.00 0.00 95 1019.9
20260506170031 11 197 8.0 14.5 0.00 0.00 0.00 95 1019.9
20260506165527 11 194 8.0 16.1 0.00 0.00 0.00 95 1019.9
20260506165028 11 198 9.7 16.1 0.00 0.00 0.00 95 1019.8
20260506164127 11 191 9.7 14.5 0.00 0.00 0.00 95 1019.7
20260506163532 10 197 6.4 12.9 0.00 0.00 0.00 95 1019.8
20260506163031 11 191 8.0 12.9 0.00 0.00 0.00 96 1019.9
20260506162525 11 198 8.0 14.5 0.00 0.00 0.00 95 1019.8
20260506162026 11 202 8.0 16.1 0.00 0.00 0.00 95 1019.8
20260506161524 10 202 9.7 16.1 0.00 0.00 0.00 95 1019.8
20260506161023 11 193 11.3 14.5 0.00 0.00 0.00 95 1019.6
20260506160523 11 197 9.7 14.5 0.00 0.00 0.00 95 1019.6
20260506160022 11 216 6.4 12.9 0.00 0.00 0.00 95 1019.7
20260506155522 11 206 8.0 14.5 0.00 0.00 0.00 95 1019.6
20260506155022 11 237 8.0 14.5 0.00 0.00 0.00 95 1019.3
20260506154522 11 199 9.7 14.5 0.00 0.00 0.00 95 1019.3
20260506154021 11 191 9.7 14.5 0.00 0.00 0.00 95 1019.2
20260506153521 11 193 8.0 14.5 0.00 0.00 0.00 95 1019.2
20260506153021 11 197 9.7 16.1 0.00 0.00 0.00 95 1019.2
20260506152520 11 197 9.7 14.5 0.00 0.00 0.00 95 1019.2
20260506152020 11 215 9.7 16.1 0.00 0.00 0.00 95 1019.3
20260506151520 11 205 9.7 16.1 0.00 0.00 0.00 95 1019.2
20260506151021 11 207 9.7 16.1 0.00 0.00 0.00 95 1019.2
20260506150517 11 194 9.7 16.1 0.00 0.00 0.00 95 1019.3
20260506150017 11 179 8.0 14.5 0.00 0.00 0.00 95 1019.3
20260506145518 11 202 9.7 16.1 0.00 0.00 0.00 95 1019.5
20260506145014 11 203 11.3 16.1 0.00 0.00 0.00 95 1019.6
20260506144514 11 195 9.7 14.5 0.00 0.00 0.00 95 1019.4
20260506144015 11 211 9.7 14.5 0.00 0.00 0.00 95 1019.1
20260506143514 11 201 9.7 14.5 0.00 0.00 0.00 95 1019.0
20260506143022 11 199 9.7 14.5 0.00 0.00 0.00 95 1019.0
20260506142514 11 196 8.0 14.5 0.00 0.00 0.00 95 1019.0
20260506142011 11 201 9.7 16.1 0.00 0.00 0.00 95 1019.3
20260506141510 11 192 9.7 16.1 0.00 0.00 0.00 95 1019.2
20260506141014 11 213 9.7 14.5 0.00 0.00 0.00 95 1019.1
20260506140508 11 204 8.0 14.5 0.00 0.00 0.00 95 1019.0
20260506140008 11 207 9.7 16.1 0.00 0.00 0.00 95 1019.1
20260506135508 11 198 11.3 16.1 0.00 0.00 0.00 95 1018.9
20260506135008 11 208 11.3 16.1 0.00 0.00 0.00 95 1018.9
20260506134505 11 191 11.3 16.1 0.00 0.00 0.00 96 1018.9
20260506134006 11 201 9.7 16.1 0.00 0.00 0.00 96 1018.9
20260506133503 11 202 11.3 16.1 0.00 0.00 0.00 96 1018.9
20260506133003 11 206 8.0 14.5 0.00 0.00 0.00 96 1019.1
20260506132504 11 202 8.0 14.5 0.00 0.00 0.00 95 1019.0
20260506132002 11 198 9.7 14.5 0.00 0.00 0.00 95 1019.0
20260506131503 11 213 11.3 16.1 0.00 0.00 0.00 95 1018.8
20260506131002 11 191 9.7 16.1 0.00 0.00 0.00 96 1018.8
20260506130504 11 192 8.0 12.9 0.00 0.00 0.00 95 1018.8
20260506130001 10 207 9.7 12.9 0.00 0.00 0.00 96 1018.8
20260506125501 10 200 8.0 12.9 0.00 0.00 0.00 96 1018.8
20260506125100 11 192 8.0 12.9 0.00 0.00 0.00 96 1018.7
20260506124602 10 194 8.0 12.9 0.00 0.00 0.00 96 1018.5
20260506124102 10 193 8.0 12.9 0.00 0.00 0.00 96 1018.6
20260506123559 10 197 8.0 12.9 0.00 0.00 0.00 96 1018.4
20260506123100 10 200 8.0 12.9 0.00 0.00 0.00 96 1018.4
20260506122559 10 200 6.4 11.3 0.00 0.00 0.00 96 1018.5
20260506122058 10 199 6.4 9.7 0.00 0.00 0.00 96 1018.7
20260506121558 10 197 4.8 9.7 0.00 0.00 0.00 96 1018.6
20260506121100 10 198 6.4 9.7 0.00 0.00 0.00 96 1018.6
20260506120557 10 198 4.8 8.0 0.00 0.00 0.00 96 1018.6
20260506120106 10 196 4.8 8.0 0.00 0.00 0.00 96 1018.5
20260506115557 10 196 4.8 8.0 0.00 0.00 0.00 96 1018.5
20260506115055 10 199 3.2 8.0 0.00 0.00 0.00 96 1018.4
20260506114555 10 196 3.2 8.0 0.00 0.00 0.00 96 1018.4
20260506114055 10 209 3.2 8.0 0.00 0.00 0.00 96 1018.4
20260506113555 10 199 3.2 8.0 0.00 0.00 0.00 96 1018.3
20260506113057 10 199 3.2 6.4 0.00 0.00 0.00 96 1018.4
20260506112553 10 202 3.2 8.0 0.00 0.00 0.00 96 1018.2
20260506112054 10 199 4.8 8.0 0.00 0.00 0.00 96 1018.2
20260506111553 10 204 4.8 9.7 0.00 0.00 0.00 96 1018.1
20260506111052 10 208 6.4 11.3 0.00 0.00 0.00 96 1018.0
20260506110551 10 201 8.0 12.9 0.00 0.00 0.00 95 1017.9
20260506110057 10 201 6.4 12.9 0.00 0.00 0.00 95 1017.7
20260506105552 10 195 6.4 12.9 0.00 0.00 0.00 95 1017.8
20260506105050 10 207 8.0 11.3 0.00 0.00 0.00 95 1017.7
20260506104553 10 187 6.4 12.9 0.00 0.00 0.00 95 1017.6
20260506104048 10 195 8.0 11.3 0.00 0.00 0.00 95 1017.7
20260506103548 10 190 6.4 12.9 0.00 0.00 0.00 95 1017.6
20260506103055 10 213 8.0 12.9 0.00 0.00 0.00 95 1017.6
20260506102547 10 183 8.0 12.9 0.00 0.00 0.00 95 1017.5
20260506102046 10 187 6.4 9.7 0.00 0.00 0.00 95 1017.5
20260506101556 10 178 6.4 9.7 0.00 0.00 0.00 95 1017.5
20260506101045 10 204 4.8 11.3 0.00 0.00 0.00 95 1017.4
20260506100545 10 196 4.8 11.3 0.00 0.00 0.00 95 1017.4
20260506095545 10 188 1.6 6.4 0.00 0.00 0.00 95 1017.5
20260506095045 10 198 3.2 6.4 0.00 0.00 0.00 95 1017.5
20260506094544 10 156 1.6 8.0 0.00 0.00 0.00 95 1017.5
20260506094042 10 215 1.6 6.4 0.00 0.00 0.00 95 1017.4
20260506093543 10 159 1.6 6.4 0.00 0.00 0.00 95 1017.4
20260506093047 10 148 3.2 8.0 0.00 0.00 0.00 95 1017.4
20260506092542 10 194 3.2 6.4 0.00 0.00 0.00 95 1017.3
20260506092042 11 125 1.6 8.0 0.00 0.00 0.00 95 1017.3
20260506091542 11 168 3.2 6.4 0.00 0.00 0.00 95 1017.4
20260506091043 11 173 1.6 8.0 0.00 0.00 0.00 95 1017.4
20260506090541 10 178 3.2 6.4 0.00 0.00 0.00 95 1017.4
20260506090040 10 200 1.6 8.0 0.00 0.00 0.00 96 1017.4
20260506085540 10 192 3.2 8.0 0.00 0.00 0.00 96 1017.4
20260506085039 10 163 0.0 3.2 0.00 0.00 0.00 95 1017.3
20260506084559 10 154 0.0 1.6 0.00 0.00 0.00 95 1017.3
20260506084038 10 154 0.0 0.0 0.00 0.00 0.00 95 1017.2
20260506083538 10 154 0.0 0.0 0.00 0.00 0.00 95 1017.2
20260506083039 10 154 0.0 0.0 0.00 0.00 0.00 95 1017.2
20260506082538 10 154 0.0 0.0 0.00 0.00 0.00 95 1017.2
20260506082035 10 154 0.0 0.0 0.00 0.00 0.00 95 1017.2
20260506081541 11 154 0.0 0.0 0.00 0.00 0.00 95 1017.1
20260506081034 11 154 0.0 0.0 0.00 0.00 0.00 95 1017.0
20260506080534 11 154 0.0 0.0 0.00 0.00 0.00 95 1016.9
20260506073039 11 154 0.0 3.2 0.00 0.00 0.00 94 1016.7
20260506072528 11 154 0.0 3.2 0.00 0.00 0.00 94 1016.7
20260506072028 11 154 0.0 1.6 0.00 0.00 0.00 94 1016.6
20260506071527 11 154 0.0 1.6 0.00 0.00 0.00 94 1016.5
20260506071026 11 154 0.0 1.6 0.00 0.00 0.00 94 1016.5
20260506070528 11 154 0.0 1.6 0.00 0.00 0.00 94 1016.5